Regional Weather Roundup
Issued by NWS Cleveland, OH

Home | Current Version | Previous Version | Graphics & Text | Print | Product List | Glossary On
Versions: 1 2 3 4 5 6 7 8 9 10 11 12 13 14 15 16 17 18 19 20 21 22 23 24 25 26 27 28 29 30 31 32 33 34 35 36 37 38 39 40 41 42 43 44 45 46 47 48 49 50
000
ASUS41 KCLE 050910
RWRCLE
OHIO REGIONAL WEATHER ROUNDUP
NATIONAL WEATHER SERVICE WILMINGTON, OH
500 AM EDT SAT SEP 05 2015

NOTE: "FAIR" INDICATES FEW OR NO CLOUDS BELOW 12,000 FEET WITH NO
SIGNIFICANT WEATHER AND/OR OBSTRUCTIONS TO VISIBILITY.

OHZ001>008-015>018-024>027-034-035-043-044-051000-
   NORTHWEST OHIO

CITY           SKY/WX    TMP DP  RH WIND       PRES   REMARKS
DEFIANCE       PTCLDY    67  63  87 CALM      30.10R
FINDLAY        MOCLDY    67  64  90 SE7       30.11R
TOLEDO EXPRESS PTCLDY    68  64  87 W3        30.09R
TOLEDO EXEC    MOCLDY    69  64  84 SW5       30.10R
LIMA           PTCLDY    66  63  90 SW5       30.11S
$$

OHZ009>014-019>023-028>033-038-089-051000-
   NORTHEAST OHIO

CITY           SKY/WX    TMP DP  RH WIND       PRES   REMARKS
CLE-HOPKINS    CLEAR     69  66  90 S3        30.14R
CLE-LAKEFRONT  CLEAR     73  65  75 S9        30.10R
CUY CO. ARPT   NOT AVBL
LORAIN-ELYRIA  CLEAR     64  62  93 W3        30.13R
ASHTABULA      CLOUDY    68  66  93 SE5       30.15R
AKRON-CANTON   PTCLDY    68  62  81 SE3       30.14R
WOOSTER        FOG       61  60  97 CALM      30.14R VSB 1/4
MANSFIELD      CLEAR     63  62  97 CALM      30.15R
YOUNGSTOWN     PTCLDY    64  62  93 E7        30.15R FOG
$$

OHZ042-051>053-060>062-070>072-077>081-051000-
  SOUTHWEST OHIO

CITY           SKY/WX    TMP DP  RH WIND       PRES   REMARKS
CINC-COVINGTON PTCLDY    68  65  90 E7        30.11R
CINC-LUNKEN    PTCLDY    64  64 100 CALM      30.11R FOG
HAMILTON       PTCLDY    64  64 100 CALM      30.12R FOG
DAYTON         PTCLDY    61  61 100 NE6       30.13R
WRIGHT-PAT AFB CLEAR     64  64 100 NE2       30.12R
DAYTON GENERAL CLEAR     64  62  93 SE6       30.12R
WILMINGTON     CLEAR     63  60  90 E3        30.12R
$$

OHZ036-037-039>041-045>050-054>059-063>069-073>076-082>088-051000-
  CENTRAL AND SOUTHEAST OHIO

CITY           SKY/WX    TMP DP  RH WIND       PRES   REMARKS
COLUMBUS       PTCLDY    65  64  97 NW3       30.12R
OSU AIRPORT    PTCLDY    63  62  97 CALM      30.13R FOG
BOLTON FIELD   PTCLDY    63  63 100 CALM      30.13R FOG
RICKENBACK AFB PTCLDY    64  63  96 CALM      30.12R
NEWARK         CLEAR     62  60  93 CALM      30.13R FOG
MARION         PTCLDY    61  59  93 SE5       30.13R
LANCASTER      PTCLDY    65  63  93 CALM      30.13R FOG
ZANESVILLE     CLEAR     63  62  97 CALM      30.13R
NEW PHILLY     MOCLDY    64  64 100 CALM      30.14R FOG
$$



USA.gov is the U.S. government's official web portal to all federal, state and local government web resources and services.